MDT,Max TemperatureF,Mean TemperatureF,Min TemperatureF,Max Dew PointF,MeanDew PointF,Min DewpointF,Max Humidity, Mean Humidity, Min Humidity, Max Sea Level PressureIn, Mean Sea Level PressureIn, Min Sea Level PressureIn, Max VisibilityMiles, Mean VisibilityMiles, Min VisibilityMiles, Max Wind SpeedMPH, Mean Wind SpeedMPH, Max Gust SpeedMPH,PrecipitationIn, CloudCover, Events, WindDirDegrees
2012-10-1,70,55,39,40,35,31,73,49,25,30.30,30.16,29.96,10,10,10,14,7,21,0.01,1,Rain,308
2012-10-2,84,60,35,32,25,17,75,43,10,29.94,29.80,29.66,10,10,10,24,7,30,0.00,0,,283
2012-10-3,57,44,30,34,27,20,75,52,28,30.41,30.08,29.65,10,10,10,37,17,44,0.00,4,,336
2012-10-4,48,36,24,27,22,17,85,58,31,30.46,30.37,30.27,10,10,10,17,7,25,0.00,3,,1
2012-10-5,38,34,29,30,27,20,92,70,48,30.39,30.31,30.24,10,8,2,18,8,22,0.02,8,Snow,114
2012-10-6,40,30,20,29,25,16,100,70,40,30.48,30.36,30.29,10,8,2,16,6,21,0.11,6,Snow,5
2012-10-7,56,37,17,22,18,16,92,57,22,30.33,30.16,30.01,10,9,2,25,9,30,0.00,1,,310
2012-10-8,63,44,24,34,22,16,75,46,16,30.01,29.92,29.81,10,10,10,21,5,24,0.00,0,,343
2012-10-9,47,37,27,36,30,24,85,65,45,30.24,30.11,29.90,10,10,9,16,7,20,T,6,Snow,343
2012-10-10,70,45,19,30,24,18,92,54,16,30.24,30.05,29.88,10,10,10,20,5,24,0.00,0,,283
2012-10-11,53,41,29,32,30,25,89,67,45,30.19,30.11,29.92,10,10,10,29,14,37,0.00,0,,128
2012-10-12,73,52,31,47,33,26,85,55,24,30.11,29.94,29.74,10,10,10,28,12,35,T,2,Rain,162
2012-10-13,70,56,42,38,30,22,59,38,17,30.09,29.82,29.68,10,10,10,22,11,28,T,4,,327
2012-10-14,69,52,34,32,26,21,75,46,17,30.22,30.11,30.03,10,10,10,28,7,33,0.00,0,,314
2012-10-15,74,54,34,36,27,21,56,37,18,30.01,29.85,29.70,10,10,10,36,15,44,T,2,,276
2012-10-16,75,54,32,45,37,27,92,59,25,29.81,29.59,29.35,10,10,6,44,14,55,0.16,4,Rain-Thunderstorm,288
2012-10-17,51,43,34,36,23,11,79,50,20,30.04,29.84,29.63,10,10,10,36,20,45,0.02,4,Rain,319
2012-10-18,54,41,28,20,15,11,59,39,18,30.21,30.14,30.06,10,10,10,32,16,40,0.00,1,,312
2012-10-19,71,48,25,24,20,16,68,42,16,30.12,29.91,29.69,10,10,10,29,10,38,0.00,0,,313
2012-10-20,77,58,39,25,24,21,54,34,13,29.73,29.60,29.47,10,10,10,32,10,41,0.00,1,,292
2012-10-21,58,48,38,37,35,24,86,67,47,29.93,29.83,29.63,10,10,10,17,9,21,0.00,3,,96
2012-10-22,58,49,40,40,38,35,93,72,51,29.91,29.77,29.62,10,10,10,26,14,35,T,4,Rain,136
2012-10-23,62,47,31,37,32,26,96,66,36,29.92,29.73,29.59,10,10,10,33,12,40,T,2,,314
2012-10-24,43,33,23,34,30,24,100,79,57,30.20,29.99,29.83,10,5,1,18,7,22,0.44,8,Rain-Snow,335
2012-10-25,31,22,12,25,20,10,100,86,72,30.47,30.30,30.14,10,8,0,12,4,14,0.09,4,Fog-Snow,65
2012-10-26,33,23,13,27,22,13,92,84,75,30.55,30.38,30.23,10,10,4,12,4,14,0.03,4,Snow,137
2012-10-27,47,36,24,30,24,19,85,65,45,30.20,30.14,30.05,10,10,10,17,5,20,T,3,Rain,309
2012-10-28,60,43,25,36,31,23,92,64,36,30.12,30.03,29.91,10,10,10,31,7,39,0.00,1,,233
2012-10-29,69,53,37,38,35,34,85,58,31,30.04,29.98,29.91,10,10,10,26,9,33,0.00,1,,302
2012-10-30,66,49,31,34,30,27,82,54,26,30.13,30.06,30.00,10,10,10,25,8,31,0.00,0,,323
2012-10-31,69,49,28,34,29,26,92,57,21,30.14,30.08,30.01,10,10,10,15,5,20,0.00,0,,316